Track GONETS D1M 1 now! 10-day predictions GONETS D1M 1 is classified as:
1 28909U 05048B 18108.78989684 +.00000017 +00000-0 +42009-4 0 9999 2 28909 082.4704 055.5181 0007130 345.9988 014.0900 12.55171115564634